Probability
0 0 0 0 0 0 0 0 0 0 0 0 0 0 0 0 0 0 3 3 3 6 19 16 19 19 19 23 26 23 23 26 23 19 16 10 10 13 13 10 6 6 10 3 6 3 3 3 0
0 0 0 0 0 0 0 0 0 0 0 0 0 0 3 0 0 0 3 3 0 6 16 13 23 23 19 19 23 19 29 16 16 13 13 10 6 6 10 3 3 3 3 0 0 0 0 0 0
0 0 0 0 0 0 0 0 0 0 0 0 0 0 0 0 0 3 6 3 3 10 16 13 23 23 19 23 19 19 19 13 16 13 13 13 10 10 3 3 3 6 6 0 0 0 0 0 0
0 0 0 0 0 0 0 0 0 0 0 0 0 0 0 0 3 3 3 3 6 13 10 19 23 23 19 16 13 16 16 13 13 10 13 13 13 10 6 6 10 10 6 3 0 0 0 0 0
0 0 0 0 0 0 0 0 0 0 0 0 0 3 0 3 6 6 0 3 6 10 10 13 23 23 23 16 19 13 13 13 10 10 10 10 13 13 10 13 6 6 6 3 0 0 0 0 0
0 0 0 0 0 0 0 0 0 0 0 0 0 3 0 0 6 6 3 3 3 6 10 13 19 16 19 16 16 10 10 10 6 6 6 10 10 10 10 13 10 3 3 6 3 0 0 0 0
0 0 0 0 0 0 0 0 0 0 0 0 0 3 0 0 3 10 3 3 0 3 3 3 6 13 16 13 16 10 6 6 6 6 6 6 10 10 6 13 13 13 6 3 3 0 0 0 0
0 0 0 0 0 0 0 0 0 0 0 0 0 0 0 0 6 10 6 10 6 6 3 3 3 6 6 10 6 3 6 6 3 3 3 6 6 10 10 13 13 13 13 6 0 0 0 0 0
0 0 0 0 0 0 0 0 0 0 0 0 0 0 0 0 6 6 6 10 10 6 6 6 10 6 6 10 3 3 3 3 3 3 3 0 0 0 0 0 6 6 6 0 0 0 0 0 0
0 0 0 0 0 0 0 0 0 0 0 0 0 0 0 0 6 6 6 6 6 6 10 10 6 6 6 6 6 3 3 6 3 3 3 0 0 0 0 0 0 3 3 0 0 0 0 0 0
0 0 0 0 0 0 0 0 0 0 0 0 0 0 0 0 3 0 6 6 6 10 10 10 10 10 6 10 6 6 6 3 3 6 3 3 3 3 0 6 0 0 0 0 0 0 0 0 0
0 0 0 0 0 0 0 0 0 0 0 0 0 0 0 0 3 0 0 3 3 3 6 10 10 10 6 10 6 6 6 3 3 3 3 3 3 3 3 0 0 0 0 0 3 0 0 0 0
0 0 0 0 0 0 0 0 0 0 0 0 0 0 0 0 0 0 0 0 3 3 3 6 10 10 10 10 6 3 3 3 3 3 3 3 3 6 0 0 0 0 0 0 0 0 0 0 0
0 0 0 0 0 0 0 0 0 0 0 0 0 0 0 0 0 0 0 0 0 0 3 3 3 6 6 6 6 6 6 3 3 3 3 3 3 3 0 0 0 0 0 0 0 0 0 0 0
0 0 0 0 0 0 0 0 0 0 0 0 0 0 0 0 0 0 0 0 0 0 0 0 3 3 6 6 6 3 3 3 3 3 3 3 3 0 0 0 0 0 0 0 0 0 0 0 0
0 0 0 0 0 0 0 0 0 0 0 0 0 0 0 0 0 0 0 0 0 0 0 0 0 0 3 6 6 3 3 3 3 3 3 0 0 0 0 0 0 0 0 0 0 0 0 0 0
0 0 0 0 0 0 0 0 0 0 0 0 0 0 0 0 0 0 0 0 0 0 0 0 0 0 0 0 3 0 0 0 0 0 0 0 0 0 0 0 0 0 0 0 0 0 0 0 0
0 0 0 0 0 0 0 0 0 0 0 0 0 0 0 0 0 0 0 0 0 0 0 0 0 0 0 0 0 0 0 0 0 0 0 0 0 0 0 0 0 0 0 0 0 0 0 0 0
0 0 0 0 0 0 0 0 0 0 0 0 0 0 0 0 0 0 0 0 0 0 0 0 0 0 0 0 0 0 0 0 0 0 0 0 0 0 0 0 0 0 0 0 0 0 0 0 0
0 0 0 0 0 0 0 0 0 0 0 0 0 0 0 0 0 0 0 0 0 0 0 0 0 0 0 0 0 0 0 0 0 0 0 0 0 0 0 0 0 0 0 0 0 0 0 0 0
0 0 0 0 0 0 0 0 0 0 0 0 0 0 0 0 0 0 0 0 0 0 0 0 0 0 0 0 0 0 0 0 0 0 0 0 0 0 0 0 0 0 0 0 0 0 0 0 0
0 0 0 0 0 0 0 0 0 0 0 0 0 0 0 0 0 0 0 0 0 0 0 0 0 0 0 0 0 0 0 0 0 0 0 0 0 0 0 0 0 0 0 0 0 0 0 0 0
0 0 0 0 0 0 0 0 0 0 0 0 0 0 0 0 0 0 0 0 0 0 0 0 0 0 0 0 0 0 0 0 0 0 0 0 0 0 0 0 0 0 0 0 0 0 0 0 0
0 0 0 0 0 0 0 0 0 0 0 0 0 0 0 0 0 0 0 0 0 0 0 0 0 0 0 0 0 0 0 0 0 0 0 0 0 0 0 0 0 0 0 0 0 0 0 0 0
0 0 0 0 0 0 0 0 0 0 0 0 0 0 0 0 0 0 0 0 0 0 0 0 0 0 0 0 0 0 0 0 0 0 0 0 0 0 0 0 0 0 0 0 0 0 0 0 0
0 0 0 0 0 0 0 0 0 0 0 0 0 0 0 0 0 0 0 0 0 0 0 0 0 0 0 0 0 0 0 0 0 0 0 0 0 0 0 0 0 0 0 0 0 0 0 0 0
0 0 0 0 0 0 0 0 0 0 0 0 0 0 0 0 0 0 0 0 0 0 0 0 0 0 0 0 0 0 0 0 0 0 0 0 0 0 0 0 0 0 0 0 0 0 0 0 0
0 0 0 0 0 0 0 0 0 0 0 0 0 0 0 0 0 0 0 0 0 0 0 0 0 0 0 0 0 0 0 0 0 0 0 0 0 0 0 0 0 0 0 0 0 0 0 0 0
0 0 0 0 0 0 0 0 0 0 0 0 0 0 0 0 0 0 0 0 0 0 0 0 0 0 0 0 0 0 0 0 0 0 0 0 0 0 0 0 0 0 0 0 0 0 0 0 0
0 0 0 0 0 0 0 0 0 0 0 0 0 0 0 0 0 0 0 0 0 0 0 0 0 0 0 0 0 0 0 0 0 0 0 0 0 0 0 0 0 0 0 0 0 0 0 0 0
Height
5812 5814 5815 5817 5818 5819 5820 5821 5822 5823 5825 5826 5827 5828 5829 5830 5831 5834 5833 5833 5834 5835 5835 5836 5837 5838 5839 5839 5840 5841 5841 5842 5843 5843 5844 5844 5844 5845 5845 5845 5845 5846 5846 5846 5846 5846 5846 5846 5846
5808 5809 5811 5812 5813 5814 5816 5817 5818 5819 5820 5821 5822 5823 5824 5825 5826 5827 5827 5828 5829 5830 5831 5832 5833 5834 5835 5836 5836 5837 5838 5838 5839 5840 5840 5841 5841 5841 5842 5842 5842 5843 5843 5843 5843 5843 5843 5843 5843
5803 5804 5806 5807 5808 5810 5811 5812 5813 5814 5815 5816 5817 5817 5819 5820 5821 5822 5823 5824 5825 5826 5827 5828 5829 5830 5831 5831 5832 5833 5834 5834 5835 5835 5836 5837 5837 5838 5838 5838 5839 5839 5839 5839 5840 5840 5840 5840 5840
5798 5799 5801 5802 5803 5805 5806 5807 5808 5808 5809 5810 5811 5812 5813 5815 5816 5817 5818 5819 5820 5821 5822 5823 5824 5825 5826 5827 5828 5828 5829 5830 5830 5831 5832 5832 5833 5833 5834 5834 5835 5835 5835 5836 5836 5836 5836 5836 5836
5793 5794 5795 5796 5798 5799 5800 5801 5802 5803 5804 5805 5805 5806 5807 5809 5810 5811 5812 5814 5815 5816 5817 5818 5820 5821 5821 5822 5823 5824 5824 5825 5826 5826 5827 5827 5828 5829 5829 5830 5830 5831 5831 5831 5832 5832 5832 5832 5832
5788 5788 5790 5791 5792 5794 5795 5795 5796 5797 5798 5798 5799 5800 5801 5803 5804 5805 5806 5808 5809 5810 5812 5813 5814 5815 5816 5817 5818 5819 5819 5820 5821 5821 5822 5823 5823 5824 5824 5825 5825 5826 5826 5826 5827 5827 5827 5827 5827
5782 5783 5784 5785 5786 5787 5789 5789 5790 5791 5792 5792 5793 5794 5795 5796 5798 5799 5801 5802 5803 5804 5806 5807 5808 5810 5811 5811 5812 5813 5814 5815 5815 5816 5817 5817 5818 5819 5819 5820 5820 5821 5821 5821 5821 5822 5822 5822 5822
5776 5778 5778 5779 5780 5781 5783 5783 5784 5785 5785 5786 5786 5787 5789 5790 5792 5793 5794 5796 5797 5798 5799 5801 5802 5803 5804 5805 5806 5807 5808 5809 5809 5810 5811 5812 5812 5813 5813 5814 5814 5815 5815 5815 5816 5816 5816 5816 5816
5770 5771 5772 5773 5774 5775 5776 5776 5777 5778 5778 5779 5779 5781 5782 5783 5785 5786 5788 5789 5790 5792 5793 5794 5795 5796 5798 5798 5799 5800 5801 5802 5803 5804 5805 5805 5806 5806 5807 5808 5808 5808 5809 5809 5809 5810 5810 5810 5810
5763 5764 5766 5767 5768 5768 5769 5770 5770 5771 5771 5772 5772 5773 5774 5776 5778 5779 5780 5782 5783 5784 5785 5787 5788 5789 5790 5791 5792 5793 5794 5795 5796 5797 5797 5798 5799 5799 5800 5801 5801 5802 5802 5802 5802 5803 5803 5803 5803
5757 5758 5759 5760 5760 5761 5761 5762 5763 5763 5764 5765 5766 5766 5767 5769 5770 5771 5773 5774 5776 5777 5778 5779 5780 5781 5783 5784 5785 5785 5786 5787 5788 5789 5790 5790 5791 5792 5793 5793 5794 5794 5794 5795 5795 5795 5795 5795 5796
5750 5751 5752 5752 5753 5753 5754 5755 5756 5756 5757 5758 5758 5759 5760 5761 5762 5764 5765 5766 5768 5769 5770 5771 5772 5773 5774 5775 5776 5777 5778 5779 5780 5781 5782 5782 5783 5784 5785 5785 5786 5786 5786 5787 5787 5787 5787 5787 5787
5743 5744 5744 5745 5745 5746 5747 5747 5748 5749 5750 5750 5750 5751 5752 5753 5754 5756 5757 5758 5760 5761 5762 5763 5763 5765 5766 5767 5768 5769 5770 5771 5772 5773 5773 5774 5775 5776 5776 5777 5777 5778 5778 5778 5778 5779 5779 5779 5779
5737 5737 5737 5738 5739 5739 5740 5740 5741 5743 5742 5743 5743 5744 5745 5745 5746 5748 5749 5750 5751 5752 5753 5754 5755 5756 5757 5758 5759 5760 5761 5762 5763 5764 5765 5766 5766 5767 5768 5768 5769 5769 5769 5770 5770 5770 5770 5770 5770
5729 5730 5731 5731 5732 5733 5733 5734 5735 5735 5735 5735 5736 5736 5737 5737 5738 5739 5740 5741 5742 5744 5745 5746 5747 5748 5749 5750 5751 5752 5753 5754 5755 5755 5756 5757 5757 5758 5759 5759 5760 5760 5760 5760 5760 5761 5761 5761 5761
5722 5723 5724 5725 5725 5725 5727 5728 5728 5728 5727 5728 5728 5728 5728 5729 5730 5730 5731 5732 5734 5735 5736 5737 5738 5739 5740 5741 5742 5743 5744 5745 5746 5747 5747 5748 5748 5749 5749 5750 5750 5751 5751 5751 5751 5751 5751 5751 5751
5715 5716 5717 5718 5718 5718 5718 5720 5721 5720 5720 5720 5720 5720 5720 5721 5721 5722 5722 5723 5725 5726 5727 5728 5729 5731 5732 5732 5733 5734 5735 5736 5737 5737 5738 5738 5739 5739 5740 5740 5741 5741 5741 5741 5741 5741 5741 5741 5741
5709 5709 5709 5710 5710 5710 5710 5712 5713 5712 5712 5713 5712 5712 5712 5712 5713 5713 5713 5714 5716 5717 5718 5720 5721 5722 5722 5723 5724 5725 5726 5727 5728 5728 5729 5729 5729 5730 5730 5730 5730 5730 5731 5731 5731 5731 5731 5731 5731
5701 5701 5702 5702 5702 5702 5703 5704 5705 5705 5705 5705 5705 5705 5705 5704 5704 5704 5705 5706 5707 5708 5709 5710 5711 5712 5713 5714 5715 5716 5717 5718 5718 5718 5719 5719 5719 5719 5719 5720 5720 5720 5720 5720 5720 5720 5720 5720 5720
5693 5693 5694 5695 5695 5694 5695 5696 5697 5697 5697 5697 5697 5696 5696 5696 5695 5695 5696 5697 5698 5699 5700 5701 5702 5703 5704 5705 5706 5707 5707 5708 5708 5708 5708 5709 5709 5709 5709 5709 5709 5709 5709 5709 5709 5709 5709 5709 5708
5686 5686 5687 5687 5687 5686 5687 5688 5690 5690 5690 5689 5689 5688 5688 5688 5687 5687 5687 5688 5689 5690 5690 5691 5692 5693 5694 5695 5696 5697 5697 5698 5698 5698 5698 5698 5698 5698 5698 5699 5699 5698 5698 5698 5698 5698 5698 5697 5697
5678 5679 5679 5679 5679 5679 5680 5679 5683 5682 5682 5682 5681 5681 5680 5679 5679 5678 5678 5679 5680 5680 5681 5681 5683 5684 5684 5685 5686 5687 5687 5688 5688 5688 5687 5687 5687 5687 5688 5688 5687 5687 5687 5687 5686 5686 5686 5686 5686
5671 5671 5672 5671 5671 5671 5672 5672 5675 5675 5674 5674 5673 5673 5672 5671 5671 5670 5670 5670 5671 5671 5671 5672 5673 5674 5675 5675 5676 5676 5677 5677 5677 5677 5677 5677 5677 5677 5677 5676 5676 5676 5676 5675 5675 5675 5674 5674 5674
5664 5664 5664 5663 5663 5664 5666 5665 5666 5667 5667 5666 5665 5665 5664 5663 5663 5662 5662 5662 5662 5662 5662 5663 5663 5664 5665 5665 5666 5666 5666 5666 5666 5666 5666 5666 5666 5666 5666 5666 5665 5665 5664 5664 5663 5663 5663 5663 5662
5657 5657 5656 5656 5656 5657 5658 5657 5659 5659 5659 5659 5658 5657 5656 5655 5655 5655 5654 5654 5653 5653 5653 5653 5654 5654 5654 5655 5655 5655 5655 5655 5656 5656 5656 5656 5656 5655 5655 5655 5654 5654 5653 5653 5652 5652 5651 5651 5651
5649 5650 5650 5650 5649 5649 5649 5650 5653 5652 5651 5650 5650 5649 5648 5647 5647 5646 5646 5645 5645 5645 5644 5644 5644 5644 5644 5645 5645 5645 5645 5645 5645 5645 5645 5645 5645 5645 5644 5644 5643 5642 5642 5641 5641 5641 5640 5640 5639
5641 5642 5643 5642 5641 5641 5641 5643 5645 5645 5643 5642 5642 5641 5640 5639 5639 5638 5638 5637 5637 5636 5636 5636 5635 5635 5635 5635 5635 5635 5635 5634 5634 5634 5634 5633 5633 5633 5633 5632 5632 5631 5631 5630 5630 5630 5629 5629 5628
5634 5635 5635 5634 5633 5633 5634 5635 5637 5636 5635 5635 5634 5633 5632 5631 5631 5630 5630 5629 5628 5628 5627 5627 5627 5626 5626 5625 5625 5625 5624 5624 5624 5623 5623 5623 5622 5622 5621 5621 5620 5620 5620 5619 5619 5619 5618 5618 5617
5627 5627 5627 5626 5626 5626 5626 5630 5629 5629 5627 5626 5626 5625 5624 5624 5623 5623 5622 5621 5620 5619 5619 5618 5618 5617 5617 5616 5615 5615 5614 5614 5614 5613 5613 5612 5611 5611 5610 5609 5609 5608 5608 5608 5608 5608 5607 5606 5605
5619 5619 5619 5619 5619 5618 5617 5622 5621 5621 5619 5618 5618 5617 5616 5615 5615 5614 5614 5613 5612 5611 5610 5609 5608 5608 5607 5606 5606 5605 5604 5604 5603 5603 5602 5602 5601 5600 5599 5598 5597 5597 5597 5596 5596 5596 5596 5595 5594
Wind_Speed
22 23 23 23 24 24 24 23 22 23 23 23 23 23 23 22 22 23 22 22 22 22 21 20 20 19 19 19 18 18 18 18 18 17 17 17 16 16 15 15 14 14 13 13 13 13 13 13 14
24 24 24 25 25 25 24 23 23 24 24 24 24 24 24 24 24 24 23 23 23 23 22 22 21 21 21 21 20 20 20 20 19 19 18 18 18 18 17 16 16 15 15 15 15 15 15 15 15
25 25 25 26 26 25 24 23 23 24 25 25 25 25 25 25 25 25 25 24 24 24 24 23 23 22 22 23 22 22 22 21 21 21 20 20 20 19 19 18 18 17 17 17 16 16 16 16 16
24 25 27 27 26 26 25 24 24 25 25 26 27 27 27 27 27 26 26 25 25 25 25 25 24 24 24 24 24 23 23 23 22 22 21 21 21 21 21 21 20 20 20 19 19 18 18 18 19
24 26 27 28 27 27 27 26 26 26 26 27 28 29 29 28 28 27 27 27 26 26 27 26 26 25 25 24 24 24 24 24 24 23 23 23 23 22 22 22 22 22 22 21 21 21 21 21 21
25 26 27 27 27 28 28 27 28 27 28 28 29 30 29 29 29 29 28 28 28 28 28 27 27 27 27 26 26 26 25 25 25 25 25 25 24 24 24 24 24 24 24 24 24 24 24 23 23
26 26 27 27 28 29 28 29 29 29 30 29 29 30 30 31 30 30 30 29 29 29 29 29 28 28 28 28 28 27 27 27 27 27 26 26 27 27 26 26 26 26 26 26 26 26 26 25 25
27 27 27 27 27 28 29 30 30 30 30 30 30 31 31 31 31 31 31 30 30 30 30 31 30 30 29 30 30 29 29 29 29 29 29 28 28 29 29 28 28 28 28 28 28 28 28 28 27
27 28 28 27 27 28 28 29 30 30 30 31 31 31 31 31 32 32 32 32 32 32 32 32 32 32 31 31 31 31 31 31 31 31 31 31 31 31 31 31 31 31 31 31 30 30 30 30 29
27 28 28 28 28 28 28 29 30 30 30 30 31 31 32 32 32 33 33 33 34 34 34 34 34 34 33 33 33 33 33 33 33 32 33 33 33 33 33 33 33 33 32 32 32 32 32 32 31
27 27 27 28 29 29 29 30 30 30 30 31 31 31 33 33 33 34 35 35 35 36 36 36 36 36 36 35 35 35 35 35 35 34 35 35 35 35 35 35 35 35 34 34 35 35 35 34 34
26 26 27 27 28 29 29 29 29 30 30 30 31 32 33 34 34 34 35 35 35 36 36 37 37 37 37 37 36 36 36 36 36 36 36 37 36 36 36 36 36 36 36 37 37 37 36 36 36
26 26 27 27 27 28 28 29 29 28 29 30 30 32 33 34 34 34 34 35 35 36 36 37 37 37 37 37 36 37 37 37 37 37 37 37 38 37 37 37 38 38 38 38 38 38 38 38 38
26 27 27 27 27 28 28 28 28 28 30 30 31 31 32 33 34 34 34 34 35 35 36 36 37 37 37 37 37 37 37 38 38 38 38 38 38 38 38 39 39 39 39 39 39 39 39 39 39
27 27 27 27 28 28 29 28 27 28 29 30 31 32 32 33 34 35 35 36 35 35 36 36 37 37 37 37 37 37 38 38 38 38 38 38 39 39 39 39 40 40 40 40 40 40 40 41 41
26 27 27 27 28 28 29 28 27 28 29 29 30 31 32 32 34 34 35 36 36 36 36 36 37 37 37 38 38 37 38 38 37 38 38 39 39 40 40 40 40 40 40 40 40 41 41 41 42
26 27 27 27 28 29 29 28 28 28 29 29 30 30 31 32 34 34 35 35 36 36 37 37 37 37 38 38 38 38 38 38 38 38 38 39 40 40 41 41 41 41 41 41 41 41 42 42 42
26 27 27 27 28 29 30 29 29 29 29 29 30 30 30 31 33 34 35 36 36 37 37 38 38 38 38 38 38 38 38 39 39 39 39 39 40 41 42 42 42 42 42 42 43 43 43 43 43
28 27 27 28 28 29 29 29 29 29 30 29 30 30 30 31 32 34 35 36 36 37 38 38 38 38 38 38 38 39 39 39 40 40 41 41 41 41 42 43 43 43 44 44 44 44 44 44 44
27 28 28 28 28 29 30 29 29 28 29 29 29 29 30 30 32 33 35 35 36 37 37 38 38 38 39 39 39 40 40 40 40 40 41 42 42 42 42 43 43 44 44 44 45 45 45 45 45
28 28 28 29 29 29 29 29 28 28 29 29 29 29 29 29 30 31 33 34 35 35 36 37 38 38 38 39 39 40 40 41 41 41 41 42 42 43 43 43 43 44 44 45 45 46 46 46 46
27 27 28 29 29 29 29 29 27 28 28 27 28 28 28 28 29 30 32 33 34 34 36 36 37 37 38 38 39 40 41 41 42 42 42 41 42 42 42 43 43 43 44 45 45 46 47 46 46
27 27 28 28 29 29 28 30 28 27 27 27 27 27 27 28 28 29 30 32 33 34 35 36 37 37 38 38 39 39 40 41 41 41 41 41 41 41 41 42 42 43 44 45 45 45 45 46 46
26 27 28 28 29 29 28 29 28 26 26 26 27 27 27 27 28 28 28 30 32 33 34 35 36 37 37 38 38 39 39 39 39 40 40 40 40 40 41 42 42 43 43 44 43 44 44 45 45
26 26 27 29 29 29 28 29 28 26 26 26 26 27 27 27 28 28 27 28 29 30 32 34 35 36 37 38 38 38 38 38 39 39 40 39 39 40 41 41 42 42 42 43 43 44 44 44 44
25 26 27 28 29 29 29 29 27 26 26 26 26 27 27 27 27 27 27 27 27 28 30 31 33 34 35 36 37 38 38 39 39 40 40 41 40 40 40 40 41 42 42 42 43 44 43 43 44
26 26 26 28 29 30 30 29 27 26 26 26 26 26 26 26 26 26 26 27 28 28 28 29 30 31 33 34 34 35 37 38 39 39 40 41 41 40 40 40 40 40 41 41 42 42 42 43 43
26 25 26 27 29 30 30 29 28 26 26 26 26 26 25 25 25 26 26 26 27 28 28 29 30 32 33 33 34 34 34 34 35 36 37 38 39 40 41 41 40 40 40 40 41 41 41 42 42
24 25 26 28 30 30 31 29 27 26 26 26 26 25 25 26 26 26 26 27 28 28 28 29 30 31 32 33 33 33 34 34 34 35 35 36 38 39 39 39 39 41 41 41 40 40 41 40 40
25 25 26 28 29 30 31 30 27 27 27 26 26 26 26 26 26 27 27 27 28 28 28 29 30 30 31 31 31 32 33 34 34 35 35 36 37 37 37 37 37 38 39 40 40 40 40 40 40
Wind_Direction
245 244 245 245 246 247 246 246 245 244 245 246 247 246 245 245 245 248 249 248 247 246 246 246 247 248 248 248 248 247 247 247 248 249 250 251 251 251 250 249 248 248 250 252 253 256 258 261 264
245 245 245 245 247 248 246 245 246 247 246 247 247 246 245 246 247 248 249 249 247 246 246 246 247 248 249 249 249 249 249 249 249 249 250 250 251 251 251 250 251 251 253 254 256 257 259 261 263
247 247 247 247 247 248 249 246 247 249 248 247 248 247 246 247 247 248 248 248 247 247 246 246 247 249 250 250 250 250 249 251 252 251 250 250 250 251 251 252 253 254 255 257 258 259 261 263 265
249 249 248 248 248 249 250 249 249 250 250 249 249 249 247 247 248 248 247 248 248 247 246 246 247 249 250 251 250 250 251 251 252 253 251 250 250 251 251 253 254 255 256 258 260 261 262 264 266
250 250 250 249 248 248 249 249 250 251 251 251 250 250 248 247 248 248 248 248 247 247 247 246 247 248 250 251 252 252 252 252 252 252 252 250 250 251 252 253 254 255 257 259 261 261 262 263 265
252 251 252 252 250 250 250 250 250 252 253 253 252 251 249 247 247 248 248 248 248 246 247 247 248 249 250 251 251 252 252 253 253 254 254 252 251 252 253 254 255 256 257 259 261 262 263 265 265
254 253 253 252 251 251 251 251 252 253 254 255 254 251 249 248 248 249 249 249 248 247 247 248 249 250 251 251 252 253 253 253 254 254 255 255 254 254 255 256 256 257 258 260 262 262 263 265 266
255 254 253 252 252 252 252 252 254 255 255 255 254 252 250 249 248 248 249 249 249 249 249 249 249 250 252 253 253 254 254 254 254 255 255 256 256 257 256 257 258 259 259 261 262 263 264 265 266
255 254 254 253 253 253 253 253 254 255 255 254 255 252 250 248 248 249 249 250 250 250 251 251 251 251 253 253 254 254 254 255 255 256 256 256 257 257 257 258 259 260 261 262 263 264 264 265 266
256 256 255 256 256 256 254 254 254 255 255 255 254 253 250 249 248 249 250 251 252 252 252 252 252 252 253 255 255 255 256 255 256 256 256 257 257 258 258 258 260 261 262 263 264 265 265 265 265
258 258 258 257 256 255 254 254 254 254 255 255 254 253 251 250 250 250 251 252 253 253 253 253 253 253 254 255 256 256 256 256 256 257 257 258 258 258 259 260 260 261 262 263 265 265 266 266 266
258 257 257 257 256 255 254 254 254 255 255 256 256 254 252 251 252 252 253 253 253 253 253 254 254 254 254 255 255 257 257 257 258 257 258 258 258 259 260 260 261 262 262 264 265 266 266 266 266
259 257 256 256 255 254 254 254 254 255 256 257 257 256 254 253 252 252 252 253 254 255 255 255 255 255 255 255 255 256 257 257 257 258 258 258 259 259 259 261 262 262 263 264 265 265 266 266 267
260 258 257 257 255 255 254 254 254 254 256 258 258 258 257 254 252 252 253 254 254 255 256 256 256 256 256 257 256 257 258 257 257 257 258 258 259 260 260 261 261 263 264 265 265 265 265 266 267
261 261 259 258 256 255 255 254 256 257 258 260 260 259 257 255 254 254 254 254 255 256 256 257 257 257 257 257 257 258 258 258 257 258 258 259 259 260 260 261 262 262 264 265 264 264 265 265 266
261 262 261 259 258 256 255 255 256 258 260 260 261 260 258 256 255 255 255 256 256 256 257 258 258 258 258 257 257 258 259 258 258 259 259 259 260 260 261 261 262 263 264 264 265 265 265 265 266
261 263 263 261 259 257 256 256 256 258 260 261 261 261 260 258 256 256 257 257 257 257 258 258 258 258 258 258 258 258 259 260 260 260 261 260 260 261 261 262 262 263 264 264 265 265 265 265 266
262 263 263 261 259 258 257 257 257 258 260 260 261 262 263 262 258 257 257 258 258 258 258 258 258 259 259 259 258 259 260 261 261 261 261 261 261 261 262 263 263 264 264 264 264 265 266 266 266
263 263 263 261 260 260 259 258 258 258 259 261 262 262 264 264 262 259 259 259 259 260 259 259 258 259 259 259 259 259 260 262 262 262 262 262 262 262 263 264 264 264 264 264 264 265 265 265 266
264 264 263 263 262 261 259 258 258 258 260 261 263 264 265 266 264 262 259 258 259 259 259 259 259 259 259 260 260 260 261 262 263 263 263 263 263 263 264 264 265 265 265 265 265 265 265 265 266
265 265 264 264 263 263 262 259 258 259 261 262 264 266 267 268 266 264 260 259 259 259 259 258 258 259 260 260 261 262 262 263 263 264 264 263 264 264 264 264 265 265 265 265 265 265 266 266 266
264 265 265 265 263 262 263 263 260 261 263 264 266 267 268 269 268 266 262 260 259 258 258 258 259 259 260 261 262 263 264 264 265 264 264 264 264 264 265 265 265 265 265 265 265 266 266 266 266
264 264 265 264 263 263 262 265 263 264 265 266 268 269 269 269 269 267 265 262 260 259 259 259 259 259 261 262 263 265 265 265 265 264 264 264 264 264 265 265 265 265 265 266 265 265 265 266 267
264 264 263 262 263 263 263 265 266 266 267 268 269 270 270 269 269 268 267 265 263 262 261 260 260 261 262 263 265 266 266 266 264 264 264 264 265 265 265 266 266 267 267 266 265 265 265 267 267
262 263 263 263 262 264 265 266 269 270 269 269 271 271 271 270 269 268 268 268 267 265 264 262 263 263 263 264 265 266 267 265 264 264 264 265 265 266 266 266 267 267 267 266 266 266 266 267 268
262 262 262 265 266 266 266 267 269 272 272 272 272 272 273 272 270 269 268 268 268 268 267 265 263 264 264 265 266 267 266 266 265 265 265 265 266 267 268 268 267 266 266 266 266 266 265 267 268
262 261 262 263 266 267 268 269 270 272 274 274 274 273 273 272 271 270 269 268 268 269 268 267 267 267 267 267 268 268 267 267 266 266 266 266 267 268 268 268 268 267 266 266 266 266 266 266 267
263 262 261 263 266 269 269 271 274 274 274 275 276 275 273 272 271 271 271 270 269 269 269 269 269 269 270 270 269 270 269 268 267 267 267 266 267 269 269 269 267 267 266 266 266 267 266 267 267
263 262 263 265 267 270 272 273 274 274 275 275 276 276 275 271 269 271 272 272 271 272 272 271 271 271 273 273 272 272 271 268 267 268 269 269 269 269 269 269 268 267 265 265 265 266 267 268 269
263 264 264 266 268 269 271 273 274 274 274 275 275 275 274 271 270 270 271 272 273 273 273 274 273 275 275 275 274 273 272 270 269 269 270 270 271 272 272 270 270 268 266 266 265 265 267 268 269